Location: Cactus School
(34.5700°N, 118.0931°W)
Time: 08:53:43
(UTC-07:00)

S-56A Canister/Altair - Pass Details

Date: 16 April 2024
Orbit: 638 x 2488 km, 38.9° (Epoch: 29 May)

Event Time Altitude Azimuth Distance (km) Brightness Sun altitude
Rises 00:35:05 0° 291° (WNW) 4,800 11.9 -44.9°
Reaches altitude 10° 00:37:56 10° 287° (WNW) 4,034 11.3 -45.0°
Enters shadow 00:42:38 32° 276° (W) 2,974 10.4 -45.0°
Maximum altitude 00:48:58 59° 212° (SSW) 2,450 - -45.1°
Drops below altitude 10° 01:03:21 10° 138° (SE) 5,131 - -45.0°
Sets 01:07:30 0° 135° (SE) 6,148 - -44.9°
